Date String (YYYY-MM-DD hh:mm:ss) UTC,Instrument flags,Ambient pressure (hPa),Sample flow (lpm),Bypass flow (lpm),Sample temperature (°C),Ambient temperature (°C),ASC tube jacket temperature (°C),LED temperature (°C),Box temperature (°C),Sample RH (%),Span deviation,Mass concentration (μg/m³),Mass concentration (μg/m³),Mass concentration (μg/m³)
DateTimeUTC,F1_M11,P_M11,Q1_M11,Q2_M11,T1_M11,T2_M11,T3_M11,T4_M11,T5_M11,U1_M11,ZSPAN_M11,X2_M11,X0_M11,X1_M11
2022-11-20 04:00:00,,0830.5,5.00,0.00,21.9,20.2,00.0,31.0,23.5,09.8,0000.0,0004.73,0009.44,0004.31
2022-11-20 04:01:00,,0830.5,5.01,0.00,21.9,20.2,00.0,31.0,23.5,09.8,0000.0,0004.74,0009.48,0004.30
2022-11-20 04:02:00,,0830.5,5.00,0.00,21.8,20.1,00.0,30.9,23.4,09.8,0000.0,0004.73,0009.47,0004.28
2022-11-20 04:03:00,,0830.5,5.00,0.00,21.8,20.1,00.0,30.9,23.5,09.8,0000.0,0004.71,0009.44,0004.26
2022-11-20 04:04:00,,0830.5,5.00,0.00,21.8,20.1,00.0,30.9,23.5,09.9,0000.0,0004.67,0008.99,0004.24
2022-11-20 04:05:00,,0830.5,4.99,0.00,21.8,20.1,00.0,30.9,23.5,09.9,0000.0,0004.66,0008.32,0004.23
2022-11-20 04:06:00,,0830.5,5.00,0.00,21.8,20.1,00.0,30.9,23.4,09.8,0000.0,0004.66,0008.90,0004.21
2022-11-20 04:07:00,,0830.5,5.01,0.00,21.7,20.0,00.0,30.8,23.3,09.9,0000.0,0004.65,0008.90,0004.20
2022-11-20 04:08:00,,0830.5,5.00,0.00,21.8,20.2,00.0,30.8,23.5,09.9,0000.0,0004.65,0008.91,0004.19
2022-11-20 04:09:00,,0830.6,4.98,0.00,21.8,20.9,00.0,30.7,23.7,09.9,0000.0,0004.62,0008.60,0004.16
2022-11-20 04:10:00,,0830.6,5.00,0.00,21.9,21.6,00.0,30.7,23.9,09.9,0000.0,0004.56,0008.40,0004.14
2022-11-20 04:11:00,,0830.6,5.00,0.00,22.0,21.8,00.0,30.8,24.0,09.8,0000.0,0004.51,0008.33,0004.12
2022-11-20 04:12:00,,0830.6,4.99,0.00,22.0,21.5,00.0,30.8,23.9,09.8,0000.0,0004.51,0008.72,0004.11
2022-11-20 04:13:00,,0830.6,5.02,0.00,22.0,21.2,00.0,30.9,23.8,09.9,0000.0,0004.51,0008.94,0004.10
2022-11-20 04:14:00,,0830.6,4.98,0.00,22.0,21.0,00.0,30.9,23.8,09.9,0000.0,0004.51,0008.94,0004.09
2022-11-20 04:15:00,,0830.5,5.01,0.00,22.0,20.8,00.0,30.9,23.7,09.9,0000.0,0004.50,0008.95,0004.08
2022-11-20 04:16:00,,0830.5,5.01,0.00,21.9,20.7,00.0,30.9,23.7,09.9,0000.0,0004.50,0009.06,0004.08
2022-11-20 04:17:00,,0830.5,4.99,0.00,21.9,20.5,00.0,30.9,23.7,09.9,0000.0,0004.50,0008.53,0004.08
2022-11-20 04:18:00,,0830.4,4.99,0.00,21.9,20.5,00.0,30.9,23.7,09.9,0000.0,0004.51,0008.45,0004.07
2022-11-20 04:19:00,,0830.4,5.01,0.00,21.9,20.4,00.0,30.9,23.6,09.9,0000.0,0004.49,0008.35,0004.07
2022-11-20 04:20:00,,0830.4,5.02,0.00,21.8,20.3,00.0,30.9,23.6,09.9,0000.0,0004.48,0008.47,0004.08
2022-11-20 04:21:00,,0830.4,4.98,0.00,21.8,20.3,00.0,30.9,23.5,09.9,0000.0,0004.51,0008.60,0004.09
2022-11-20 04:22:00,,0830.4,5.00,0.00,21.8,20.2,00.0,30.8,23.5,09.9,0000.0,0004.52,0008.63,0004.11
2022-11-20 04:23:00,,0830.4,5.02,0.00,21.8,20.2,00.0,30.8,23.4,10.0,0000.0,0004.52,0008.42,0004.14
2022-11-20 04:24:00,,0830.4,5.00,0.00,21.8,20.1,00.0,30.8,23.4,10.0,0000.0,0004.53,0008.00,0004.15
2022-11-20 04:25:00,,0830.3,4.99,0.00,21.7,20.1,00.0,30.8,23.4,10.1,0000.0,0004.55,0008.20,0004.17
2022-11-20 04:26:00,,0830.4,5.00,0.00,21.7,20.2,00.0,30.8,23.4,10.0,0000.0,0004.58,0008.61,0004.20
2022-11-20 04:27:00,,0830.4,5.01,0.00,21.8,20.9,00.0,30.7,23.6,10.0,0000.0,0004.59,0008.59,0004.22
2022-11-20 04:28:00,,0830.4,4.99,0.00,21.9,21.7,00.0,30.7,23.8,10.0,0000.0,0004.61,0008.59,0004.24
2022-11-20 04:29:00,,0830.4,4.99,0.00,22.0,22.0,00.0,30.7,24.0,10.0,0000.0,0004.62,0008.59,0004.25
2022-11-20 04:30:00,,0830.5,5.02,0.00,22.0,21.6,00.0,30.8,24.0,10.0,0000.0,0004.69,0008.75,0004.28
2022-11-20 04:31:00,,0830.5,4.98,0.00,22.0,21.3,00.0,30.8,23.8,10.0,0000.0,0004.75,0008.92,0004.32
2022-11-20 04:32:00,,0830.4,5.00,0.00,21.9,21.0,00.0,30.8,23.7,10.0,0000.0,0004.79,0009.72,0004.35
2022-11-20 04:33:00,,0830.3,5.01,0.00,21.9,20.8,00.0,30.8,23.7,10.0,0000.0,0004.82,0009.78,0004.36
2022-11-20 04:34:00,,0830.3,5.01,0.00,21.9,20.7,00.0,30.8,23.6,10.0,0000.0,0004.84,0009.81,0004.39
2022-11-20 04:35:00,,0830.3,5.00,0.00,21.9,20.5,00.0,30.8,23.5,10.0,0000.0,0004.86,0009.85,0004.42
2022-11-20 04:36:00,,0830.3,5.00,0.00,21.8,20.4,00.0,30.8,23.4,10.0,0000.0,0004.89,0009.75,0004.43
2022-11-20 04:37:00,,0830.3,4.99,0.00,21.8,20.3,00.0,30.8,23.5,10.0,0000.0,0004.90,0009.37,0004.45
2022-11-20 04:38:00,,0830.2,5.00,0.00,21.8,20.3,00.0,30.8,23.4,10.0,0000.0,0004.94,0009.42,0004.46
2022-11-20 04:39:00,,0830.2,5.01,0.00,21.8,20.2,00.0,30.8,23.4,10.0,0000.0,0004.94,0009.72,0004.46
2022-11-20 04:40:00,,0830.2,4.99,0.00,21.7,20.1,00.0,30.8,23.4,10.1,0000.0,0004.97,0010.20,0004.46
2022-11-20 04:41:00,,0830.2,4.99,0.00,21.7,20.1,00.0,30.8,23.4,10.1,0000.0,0004.96,0010.73,0004.46
2022-11-20 04:42:00,,0830.2,5.01,0.00,21.7,20.2,00.0,30.7,23.4,10.1,0000.0,0004.99,0010.57,0004.46
2022-11-20 04:43:00,,0830.2,5.00,0.00,21.8,21.0,00.0,30.7,23.6,10.1,0000.0,0004.98,0009.83,0004.47
2022-11-20 04:44:00,,0830.1,4.98,0.00,21.9,21.8,00.0,30.7,23.9,10.1,0000.0,0004.98,0009.97,0004.47
2022-11-20 04:45:00,,0830.1,5.02,0.00,22.0,22.0,00.0,30.7,24.0,10.0,0000.0,0004.97,0010.21,0004.47
2022-11-20 04:46:00,,0830.1,4.99,0.00,22.0,21.6,00.0,30.8,23.9,10.0,0000.0,0004.94,0010.27,0004.45
2022-11-20 04:47:00,,0830.1,5.01,0.00,22.0,21.3,00.0,30.8,23.8,10.0,0000.0,0004.92,0010.79,0004.45
2022-11-20 04:48:00,,0830.1,5.01,0.00,21.9,21.1,00.0,30.8,23.7,10.0,0000.0,0004.92,0011.61,0004.46
2022-11-20 04:49:00,,0830.1,5.00,0.00,21.9,20.9,00.0,30.8,23.7,10.0,0000.0,0004.92,0012.05,0004.47
2022-11-20 04:50:00,,0830.1,4.99,0.00,21.9,20.7,00.0,30.8,23.6,10.0,0000.0,0004.94,0011.87,0004.49
2022-11-20 04:51:00,,0830.2,5.00,0.00,21.9,20.6,00.0,30.8,23.6,10.0,0000.0,0004.96,0011.63,0004.52
2022-11-20 04:52:00,,0830.1,5.00,0.00,21.8,20.4,00.0,30.8,23.5,10.0,0000.0,0004.95,0010.82,0004.54
2022-11-20 04:53:00,,0830.1,5.00,0.00,21.8,20.3,00.0,30.8,23.4,10.0,0000.0,0004.92,0010.73,0004.55
2022-11-20 04:54:00,,0830.1,5.01,0.00,21.8,20.3,00.0,30.8,23.5,10.0,0000.0,0004.87,0010.64,0004.53
2022-11-20 04:55:00,,0830.1,4.99,0.00,21.8,20.2,00.0,30.8,23.4,10.1,0000.0,0004.87,0010.50,0004.52
2022-11-20 04:56:00,,0830.1,5.00,0.00,21.7,20.2,00.0,30.8,23.4,10.1,0000.0,0004.88,0010.24,0004.51
2022-11-20 04:57:00,,0830.0,5.01,0.00,21.7,20.1,00.0,30.8,23.4,10.0,0000.0,0004.89,0010.37,0004.50
2022-11-20 04:58:00,,0830.1,5.01,0.00,21.7,20.7,00.0,30.7,23.5,10.0,0000.0,0004.87,0009.86,0004.49
2022-11-20 04:59:00,,0830.1,4.97,0.00,21.8,21.6,00.0,30.7,23.8,09.9,0000.0,0004.85,0009.21,0004.46
